Retour au catalogue

DMSP 5D-2 F10

USA 68

ActifMétéoSSO
NORAD 20978·PAYLOAD·🇺🇸 United States

Lancé Dec 1, 1990 depuis Vandenberg Space Force Base

Loading…

Prochains Passages (prochaines 24 heures)

TLE

FraisSource: Space-Track

Époque: Sep 14, 2026, 03:06 UTC

1 20978U 90105A   26257.12964898  .00000161  00000-0  63653-4 0  9995
2 20978  98.6007 317.5646 0071268  20.0997 340.2972 14.40202957875316

Suivez DMSP 5D-2 F10 en temps réel avec AllMySat

Download on the App Store